Regional Weather Roundup
Issued by NWS Sioux Falls, SD

Home | Current Version | Previous Version | Text Only | Print | Product List | Glossary Off
Versions: 1 2 3 4 5 6 7 8 9 10 11 12 13 14 15 16 17 18 19 20 21 22 23 24 25 26 27 28 29 30 31 32 33 34 35 36 37 38 39 40 41 42 43 44 45 46 47 48 49 50

000
ASUS43 KFSD 291910
RWRFSD

WEATHER ROUNDUP FOR SE SOUTH DAKOTA/SW MINNESOTA/NW IOWA
NATIONAL WEATHER SERVICE SIOUX FALLS SD
200 PM CDT WED MAR 29 2017

NOTE: "FAIR" INDICATES FEW OR NO CLOUDS BELOW 12,000 FEET WITH NO
SIGNIFICANT WEATHER AND OR OBSTRUCTIONS TO VISIBILITY.


SDZ038>040-050-052>070-292000-
SOUTHEAST SOUTH DAKOTA

CITY           SKY/WX    TMP DP  RH WIND       PRES   REMARKS
BROOKINGS      CLOUDY    53  33  46 SE22      30.09F
CHAMBERLAIN    CLOUDY    56  42  58 E13       30.08S
HURON          PTSUNNY   56  38  50 S8        30.09F
MADISON        FAIR      48  45  87 SE15G23   30.09F
MITCHELL       CLOUDY    52  38  58 SE20      30.10F
SIOUX FALLS    CLOUDY    49  41  74 E18       30.09F
WINNER         MOCLDY    56  42  59 E8        30.05F
YANKTON        CLOUDY    46  39  76 NE20G26   30.05F
$$

MNZ071-072-080-081-089-090-097-098-292000-
SOUTHWEST MINNESOTA

CITY           SKY/WX    TMP DP  RH WIND       PRES   REMARKS
FAIRMONT       LGT RAIN  46  39  76 E21G31    30.13F
JACKSON        DRIZZLE   45  37  76 E24G37    30.12F
LUVERNE        CLOUDY    46  36  66 E20       30.09F
MARSHALL       CLOUDY    50  38  63 SE14      30.15F
MONTEVIDEO     PTSUNNY   55  30  38 S16       30.14F
PIPESTONE      CLOUDY    48  34  57 E18       30.10F
REDWOOD FALLS  CLOUDY    50  35  56 SE16      30.16F
TRACY          CLOUDY    50  39  65 SE20      30.15F
WINDOM         DRIZZLE   48  37  66 E20G26    30.13F
WORTHINGTON    CLOUDY    47  37  68 E28G33    30.09F
$$

IAZ001>003-012>014-020>022-031-032-NEZ013-014-SDZ071-292000-
NORTHWEST IOWA

CITY           SKY/WX    TMP DP  RH WIND       PRES   REMARKS
CHEROKEE       LGT RAIN  43  41  94 E18G26    30.04F
DENISON        RAIN      41  41 100 NE18G29   29.96F
ESTHERVILLE    LGT RAIN  43  40  89 E24G36    30.10F FOG
LE MARS        CLOUDY    45  41  87 E14G26    30.04S
ORANGE CITY    DRIZZLE   43  39  87 E20G31    30.04F
SHELDON        CLOUDY    45  39  81 E24G37    30.05F
SIOUX CITY     RAIN      44  42  93 E17G30    30.00S
SPENCER        LGT RAIN  44  41  89 E22G30    30.08F
STORM LAKE     LGT RAIN  41  39  93 E23G41    30.02F
$$

ABBREVIATIONS USED IN REMARKS
   TC - TEMPERATURE IN CELSIUS
  WCI - WIND CHILL INDEX
   HX - HEAT INDEX
  VSB - VISIBILITY





USA.gov is the U.S. government's official web portal to all federal, state and local government web resources and services.